Regional Weather Roundup
Issued by NWS

Home | Current Version | Previous Version | Text Only | Print | Product List | Glossary Off
Versions: 1 2 3 4 5 6 7 8 9 10 11 12 13 14 15 16 17 18 19 20 21 22 23 24 25 26 27 28 29 30 31 32 33 34 35 36 37 38 39 40 41 42 43 44 45 46 47 48 49 50

000
ASUS43 KMKX 042021
RWRWI

WISCONSIN REGIONAL WEATHER ROUNDUP
NATIONAL WEATHER SERVICE MILWAUKEE/SULLIVAN WI
300 PM CDT MON MAY 04 2015

NOTE: "FAIR" INDICATES FEW OR NO CLOUDS BELOW 12,000 FEET WITH NO
SIGNIFICANT WEATHER AND/OR OBSTRUCTIONS TO VISIBILITY.

WIZ001-002-006>008-014>016-023>028-042100-
NORTHWEST WISCONSIN

CITY           SKY/WX    TMP DP  RH WIND       PRES   REMARKS
SUPERIOR ARPT  MOSUNNY   67  23  19 CALM      30.18F
ASHLAND        MOSUNNY   67  29  24 N5        30.20S
HAYWARD        SUNNY     66  16  14 MISG      30.20R
SIREN          SUNNY     68  24  18 E5        30.18F
CUMBERLAND     SUNNY     64  27  24 N9        30.18F
RICE LAKE      SUNNY     67  25  20 NW5       30.19S
CHETEK         SUNNY     67  31  26 NW8       30.18S
LADYSMITH      SUNNY     67  28  22 NW9       30.18F
EAU CLAIRE     MOSUNNY   70  30  22 VRB3      30.16F
MENOMONIE      MOSUNNY   69  28  21 N8        30.16F
NEW RICHMOND   SUNNY     69  24  18 N7        30.18F
OSCEOLA        SUNNY     68  29  23 N7        30.21S
$$

WIZ003>005-009-010-017-018-042100-
NORTH CENTRAL WISCONSIN

CITY           SKY/WX    TMP DP  RH WIND       PRES   REMARKS
MANITOWISH WTR SUNNY     62  26  25 N7        30.19S
ARBOR VITAE    SUNNY     63  26  24 NW10      30.18S
WOODRUFF       SUNNY     63  26  24 NW10      30.18S
RHINELANDER    MOSUNNY   64  31  28 CALM      30.18S
EAGLE RIVER    MOSUNNY   64  23  21 NW10      30.17S
LAND O LAKES   MOSUNNY   64  24  22 W7        30.19S
PHILLIPS       SUNNY     64  28  25 CALM      30.16F
TOMAHAWK       SUNNY     65  28  25 CALM      30.18S
MEDFORD        SUNNY     66  33  29 NW8       30.17S
MERRILL        SUNNY     66  31  26 N6        30.15F
$$

WIZ029-030-035-036-043>047-042100-
CENTRAL WISCONSIN

CITY           SKY/WX    TMP DP  RH WIND       PRES   REMARKS
WAUSAU         SUNNY     68  32  26 CALM      30.14S
MOSINEE        SUNNY     68  34  28 N6        30.16S
MARSHFIELD     SUNNY     70  33  25 N8        30.16S
STEVENS POINT  SUNNY     68  32  26 W9        30.15S
WAUPACA        SUNNY     74  36  24 CALM      30.13S
WAUTOMA        MOSUNNY   74  40  29 VRB7      30.13F
WISC RAPIDS    SUNNY     71  30  21 NE6       30.15S
CAMP DOUGLAS   PTSUNNY   72  37  28 NE7       30.13F
$$

WIZ011>013-019>022-031-037>040-048>050-042100-
NORTHEAST WISCONSIN

CITY           SKY/WX    TMP DP  RH WIND       PRES   REMARKS
ANTIGO         MOSUNNY   65  35  32 N9        30.16S
SHAWANO        SUNNY     74  32  20 CALM      30.13S
OCONTO         SUNNY     66  42  41 E13       30.14R
STURGEON BAY   SUNNY     64  41  42 NE13G18   30.18R
GREEN BAY      SUNNY     74  40  29 N10       30.13R
MANITOWOC      MOSUNNY   64  43  46 E10       30.16R
APPLETON       MOSUNNY   70  39  32 NE8       30.14S
CLINTONVILLE   SUNNY     72  34  25 NW5       30.13S
OSHKOSH        MOSUNNY   70  42  36 NE6       30.14R
$$

WIZ032>034-041-042-053>061-042100-
SOUTHWEST WISCONSIN

CITY           SKY/WX    TMP DP  RH WIND       PRES   REMARKS
LA CROSSE      PTSUNNY   74  36  25 NW7       30.14S
SPARTA         MOSUNNY   72  32  23 NW5       30.15S
VIROQUA        PTSUNNY   71  42  35 N8        30.15F
BOSCOBEL       MOSUNNY   75  49  39 E9        30.12S
PRAIRIE DU CHI PTSUNNY   72  48  42 NE3       30.11F
PLATTEVILLE    CLOUDY    71  56  60 CALM      30.12F
$$

WIZ056-057-062-063-064-067-068-042100-
SOUTH CENTRAL WISCONSIN

CITY           SKY/WX    TMP DP  RH WIND       PRES   REMARKS
REEDSBURG      SUNNY     71  47  41 NW3       30.13S
BARABOO/DELLS  NOT AVBL
LONE ROCK      CLOUDY    73  51  46 NE6       30.12S
MINERAL POINT  PTSUNNY   72  52  49 NE5       30.13S
MADISON        PTSUNNY   74  51  44 VRB5      30.13R
MIDDLETON      MOSUNNY   74  49  41 NE3       30.13S
WATERTOWN      PTSUNNY   71  56  58 NE3       30.12S
MONROE         PTSUNNY   70  55  60 N7        30.13S
JANESVILLE     PTSUNNY   73  55  53 NW3       30.13R
$$

WIZ051-052-058>065-066-070>072-042100-
SOUTHEAST WISCONSIN

CITY           SKY/WX    TMP DP  RH WIND       PRES   REMARKS
MILWAUKEE      PTSUNNY   62  43  49 NE13      30.16R
WAUKESHA       PTSUNNY   64  46  52 E12       30.15R
MILWAUKEE/TIMM SUNNY     66  34  30 E12       30.16R
RACINE         MOSUNNY   63  44  50 NE16      30.17R
BURLINGTON     PTSUNNY   67  56  68 E12G20    30.13R
KENOSHA        PTSUNNY   67  54  63 E16       30.15R
FOND DU LAC    MOSUNNY   72  43  35 NE8       30.14R
SHEBOYGAN      MOSUNNY   66  41  40 E12       30.16R
WEST BEND      MOSUNNY   68  34  28 E9G17     30.15R
JUNEAU         MOSUNNY   69  53  56 NE5       30.14S
$$

LSZ147-162-042100-
LAKE SUPERIOR

STATION/POSITION TIME  TEMP    WIND        PRES    WAVE
                       AIR SEA DIR/SP/G            HT/PER
                 (UTC) (F)     (DEG/KT/KT) (MB)    (FT/S)
W MID LAKE BUOY  1950   39 36  190/  8/  8 1023.2R   0
DEVILS ISLAND    2000   59     210/  6/  9 1022.7F
PORT WING        1900   59     290/  5/  6 1022.7
SAXON HARBOR     1900   59        CALM     1023.0R
$$

LMZ867-665-643>646-042100-
LAKE MICHIGAN

STATION/POSITION TIME  TEMP    WIND        PRES    WAVE
                       AIR SEA DIR/SP/G            HT/PER
                 (UTC) (F)     (DEG/KT/KT) (MB)    (FT/S)
CHAMBERS ISLAND  1900   59      60/ 10/ 13 1020.7R
NORTHPORT PIER   1900   53     100/  6/  7 1020.7R
SISTER BAY       1817   66      10/ 13/ 18   N/A
KEWAUNEE LAKESHO 1900   53     110/  2/  5 1020.1R
SHEBOYGAN LAKESH 2000   51     100/  4/  7 1022.1R
PORT WASHINGTON  1900   55      90/  5/  9 1021.3
ATWATER BUOY     2000   49     290/  4/  6 1022.5R
MILWAUKEE LAKESH 2000   52      30/ 10/ 12   N/A
KENOSHA   LAKESH 2000   52      40/ 10/ 11 1021.0R
$$

TC  - TEMPERATURE IN CELSIUS
VSB - VISIBILITY IN STATUTE MILES
WCI - WIND CHILL INDEX
HX  - HEAT INDEX




USA.gov is the U.S. government's official web portal to all federal, state and local government web resources and services.